sat.trackr.live / text

‹ back to catalog

STARLINK-36803

NORAD 67893 · 2026-035Q

PAYLOAD ACTIVE UNKNOWN

§ Identity

Operator
Country
US
Launch date
2026-02-21
Launch site
AFWTR
Launch vehicle
Mass (kg)
RCS (m²)

Purposes: comms

External: N2YO · Heavens-Above · Gunter

§ Orbital elements

Epoch: 2026-05-25T02:38:51.938304Z

Period
93.90 min
Inclination
97.2837°
Eccentricity
0.0001804
Mean motion
15.33486028 rev/d
Perigee alt
464.2 km
Apogee alt
466.7 km
Semi-major
6,843.6 km
B*
1.0618e-3
RAAN
78.6967°
Arg perigee
83.2131°
Mean anomaly
276.9317°
Rev number
1,570

§ Raw data

STARLINK-368031 67893U 26035Q   26145.11032336  .00034405  00000+0  10618-2 0  99992 67893  97.2837  78.6967 0001804  83.2131 276.9317 15.33486028 15703

JSON: /api/v1/satellites/67893 · /tle

For live sub-satellite position, see the globe view (requires WebGL).

§ Visibility from observer

Set your observer location to see the next 7 days of passes ≥ 10°. The values pass through the URL so the page stays shareable.

No JS? Fill the form by hand. The geolocation button needs JavaScript.